RH
26 28 28 28 30 33 39 38 44 47 43 48 49 50 55 53 55 61 63 65 68 68 68 70 70 71 73 75 76 76 75 78 81 80 82 86 87 85 79 76 76 74 72 72 76 76 75 75 75 75 71 64 62 64 67 67 62 55 44 35 28 22 20 23 27 28 32 37 34 32 30 28 27 26 27 27 24 26 29 29 29 29 31 29 28 29 27 28 26 27 28 28 27 26 27 27 27
29 30 30 30 34 38 44 40 44 49 47 51 51 56 59 59 64 67 68 69 71 71 71 72 71 73 75 76 77 76 78 82 81 79 84 86 86 85 83 82 82 78 75 76 77 77 77 77 76 72 67 63 63 66 69 67 59 47 35 28 24 21 23 31 42 43 40 41 39 36 34 32 31 27 26 26 26 27 26 27 30 29 29 28 27 27 27 27 27 29 28 28 27 26 26 26 27
31 32 32 35 38 39 43 42 46 51 52 54 57 61 63 66 70 69 70 71 71 72 73 74 73 75 77 78 80 81 83 84 84 85 88 87 86 86 86 87 85 81 79 79 79 79 80 76 71 68 65 63 63 68 71 64 50 36 28 27 28 32 37 43 49 47 40 34 32 33 30 29 29 27 28 29 29 30 28 27 29 29 28 28 27 27 27 28 28 29 27 26 26 25 26 26 26
31 33 35 39 43 43 47 51 54 55 57 58 61 65 65 69 72 71 72 72 72 74 75 75 76 80 82 81 83 84 85 87 89 90 90 89 88 85 86 89 86 84 82 81 81 79 76 71 68 67 64 63 64 65 61 50 38 31 29 33 38 43 47 48 46 42 36 28 23 25 24 26 29 29 29 29 28 29 29 28 29 29 29 29 28 27 27 28 28 28 27 26 26 26 25 27 26
36 39 42 45 48 50 53 56 58 59 61 60 64 69 68 69 73 74 74 74 75 77 77 76 81 85 85 84 84 84 87 92 91 89 90 88 86 85 87 88 87 85 83 81 79 75 72 72 73 69 66 65 59 51 43 35 32 36 40 43 46 47 45 42 38 35 33 29 25 24 22 26 31 30 30 29 28 29 29 28 29 29 29 29 28 28 27 28 29 28 28 27 26 25 22 24 26
43 46 47 48 50 51 55 59 59 61 64 63 68 74 69 69 73 75 76 77 78 78 78 77 82 84 84 85 85 84 87 93 90 87 87 85 83 83 85 85 85 82 77 76 74 74 78 80 78 72 67 57 45 38 34 30 31 40 47 47 45 42 39 36 33 32 32 31 30 28 24 28 31 30 28 27 28 29 28 28 29 29 27 27 27 27 27 29 29 26 26 24 22 22 23 25 26
47 49 49 50 53 54 58 62 61 64 69 68 71 73 69 70 74 76 78 79 80 79 79 79 80 83 84 85 86 83 83 86 87 85 81 80 80 79 81 81 80 76 74 76 78 82 83 81 77 69 56 41 33 32 30 30 35 42 43 40 37 32 31 34 32 31 30 32 33 30 29 30 30 29 27 25 28 29 27 27 29 28 24 25 26 25 25 26 25 23 21 19 20 25 27 26 26
46 50 51 54 57 58 61 65 65 67 71 70 70 71 70 73 75 76 77 78 79 78 79 78 78 84 83 83 85 82 81 82 81 78 77 79 77 76 79 78 78 79 81 84 84 84 79 74 69 56 41 29 25 25 25 30 35 38 36 33 32 24 23 32 32 30 29 31 31 30 30 27 28 28 26 25 29 29 28 27 28 26 22 22 25 24 22 20 20 19 16 19 23 27 28 26 27
48 52 53 55 58 60 64 67 69 70 72 71 69 71 72 75 76 76 77 76 76 77 79 77 78 83 81 82 85 83 82 79 74 74 77 79 76 75 79 80 83 84 85 84 79 75 66 58 51 38 28 23 24 26 27 31 33 33 33 31 29 21 21 31 33 31 30 27 26 27 26 24 27 29 25 24 28 29 28 26 24 23 20 19 19 20 18 16 17 16 16 23 27 27 26 25 25
51 53 54 55 58 62 66 68 71 73 72 70 69 72 74 75 75 75 75 75 74 76 79 75 77 81 81 82 82 82 82 76 73 77 78 77 74 74 78 82 81 79 78 72 65 59 50 39 31 24 22 23 24 26 28 31 33 32 32 30 25 20 21 30 34 31 24 19 21 22 21 23 27 27 22 20 23 23 22 21 18 18 17 16 15 14 13 14 17 19 21 25 27 26 24 21 20
56 57 58 59 63 66 67 67 71 73 70 69 71 73 74 74 74 72 71 72 74 77 78 77 77 76 77 79 80 82 80 77 77 77 74 71 73 75 78 79 74 71 65 56 51 46 39 31 23 19 21 21 20 23 25 27 29 29 28 25 21 18 20 26 29 28 19 15 20 19 17 19 22 21 18 19 20 18 17 16 14 13 13 12 13 13 16 20 22 24 26 25 27 27 20 18 18
60 61 62 65 68 67 67 68 71 71 68 71 74 73 72 73 72 72 70 68 71 75 76 76 76 75 74 76 79 80 76 76 76 74 71 71 76 77 75 72 66 61 53 46 41 36 33 29 24 22 21 20 21 24 25 25 27 29 26 25 22 18 20 20 20 21 16 17 22 20 17 17 18 17 17 18 18 16 14 13 11 11 12 14 17 19 24 27 26 27 28 27 27 23 18 18 18
60 62 64 67 68 66 68 70 69 68 69 72 72 71 71 72 70 71 69 67 70 74 74 74 74 74 74 74 77 77 74 74 73 72 73 75 77 74 68 62 56 50 44 40 34 30 29 27 27 26 22 24 27 27 27 26 28 31 28 27 24 19 21 19 16 16 14 17 20 19 17 17 17 17 16 16 16 14 12 12 12 14 17 23 27 25 24 24 25 25 25 24 21 19 18 19 18
59 61 64 67 67 66 67 68 65 67 71 69 67 68 70 70 68 68 69 70 70 71 73 72 72 73 73 74 76 76 74 73 72 70 70 72 70 66 59 53 47 42 37 33 28 26 27 25 27 27 26 29 31 29 29 28 29 30 29 27 23 21 21 19 16 16 15 16 17 17 17 17 17 15 14 14 14 12 13 16 15 20 23 24 27 23 19 19 21 21 20 19 18 18 19 18 18
59 63 63 66 68 66 66 65 62 66 70 65 65 67 67 68 67 67 71 72 68 69 72 71 73 75 73 74 74 72 72 72 70 66 64 63 60 56 51 45 39 34 31 27 24 22 24 25 26 28 30 30 29 29 29 30 29 27 26 26 24 22 22 19 17 16 16 16 17 17 17 16 15 14 14 14 14 11 13 18 16 20 23 19 20 19 18 18 18 18 18 18 17 17 16 16 15
60 63 64 66 65 65 63 61 60 66 68 63 64 66 65 65 65 66 70 72 68 67 71 70 70 72 70 69 67 65 65 64 62 59 57 55 50 45 40 35 31 28 26 25 24 20 21 22 24 29 31 30 29 29 29 30 29 26 26 26 23 22 22 20 17 16 16 17 17 16 16 18 17 15 15 15 14 11 11 15 15 17 20 18 19 19 17 17 16 17 16 15 15 14 14 14 15
60 62 65 67 64 63 61 59 61 68 67 61 62 64 65 64 63 63 64 68 67 63 64 64 63 64 62 60 57 55 51 49 51 50 47 42 37 33 29 27 26 26 26 25 23 19 20 23 26 31 30 29 29 29 30 30 28 28 30 28 25 23 21 21 18 16 17 19 19 18 20 22 24 20 16 16 14 13 14 14 16 18 19 20 19 17 16 16 15 16 15 14 14 13 14 17 20
62 63 66 69 64 61 62 60 61 65 64 60 62 63 65 64 60 60 60 62 62 59 57 55 54 54 51 47 45 43 39 39 41 39 35 30 26 25 24 24 24 24 25 26 23 19 24 28 29 30 29 29 29 30 31 31 30 30 32 30 28 25 22 22 19 18 22 26 24 24 24 24 27 23 16 15 14 15 16 16 18 19 19 19 18 16 15 15 15 15 14 14 14 14 17 21 22
62 61 66 67 61 58 59 59 60 64 62 59 61 62 64 62 57 58 58 55 55 52 47 46 45 43 41 38 36 34 33 34 33 30 27 24 23 23 23 23 23 24 24 24 25 22 24 30 30 30 30 30 30 30 31 31 31 32 32 30 30 28 26 24 19 22 28 29 28 29 28 24 27 25 18 16 17 19 19 17 18 19 19 18 17 19 18 16 15 16 16 15 16 18 20 21 20
59 59 66 64 58 56 56 58 59 62 60 57 58 60 61 58 54 54 49 43 44 44 39 37 35 34 33 30 28 26 27 28 27 26 23 23 23 23 24 24 24 25 24 23 25 24 25 30 30 29 30 32 30 30 32 31 31 32 32 31 32 31 30 28 23 24 26 27 30 32 29 26 30 30 24 23 24 26 25 23 22 22 24 21 19 24 24 20 19 22 20 18 20 21 21 21 21
58 59 66 61 57 58 56 57 58 59 59 56 56 58 56 53 51 46 41 40 38 35 33 31 29 29 27 24 22 20 20 21 22 23 24 23 24 24 24 24 24 24 24 23 25 25 26 29 30 30 30 31 30 30 31 30 31 32 32 32 32 31 31 31 28 27 25 25 31 32 29 28 31 30 28 27 26 27 26 26 26 25 27 25 22 25 25 22 22 23 22 21 22 22 22 22 22
59 59 60 59 59 59 55 57 59 58 56 54 55 55 50 45 43 36 36 42 37 30 28 27 27 24 20 19 19 19 19 19 19 20 22 23 24 24 23 24 25 24 24 23 25 26 26 29 29 31 30 30 30 31 31 30 30 32 32 32 32 32 32 31 30 32 28 26 28 29 31 32 30 30 29 27 26 27 26 26 26 25 26 26 24 24 24 23 23 23 22 22 21 21 22 22 23
61 59 58 58 59 57 55 56 56 54 52 51 50 45 39 36 33 28 26 29 28 25 24 24 22 19 16 17 19 20 20 20 20 20 20 22 23 24 24 25 24 24 24 23 25 25 25 26 28 31 30 30 31 31 31 31 31 32 31 31 31 30 31 31 30 31 30 27 27 28 30 32 30 30 30 28 27 27 26 26 26 25 26 26 25 24 24 24 24 23 22 21 21 21 21 21 22
59 58 57 56 56 56 55 54 51 49 47 44 41 34 31 31 27 23 20 19 21 22 21 21 19 16 17 19 20 20 20 21 21 21 20 20 21 23 23 23 23 23 22 23 24 25 24 21 26 31 30 31 31 30 30 31 31 32 31 31 30 29 31 31 30 31 33 30 30 31 30 30 30 30 29 28 27 27 27 27 26 26 26 26 26 25 25 25 24 24 23 21 21 21 21 21 20
58 55 54 53 53 53 52 50 45 44 41 38 36 31 29 28 23 18 16 16 18 20 20 20 17 17 19 20 20 21 21 21 21 20 21 20 18 18 19 21 22 21 22 23 22 25 21 15 21 28 30 31 28 27 30 30 31 32 32 32 30 31 31 29 29 32 33 33 32 32 30 30 31 31 29 28 27 28 28 27 27 26 27 27 27 27 26 25 25 24 24 22 21 21 21 21 21
57 53 51 49 48 48 46 44 40 39 36 35 34 29 27 25 23 20 17 17 18 19 20 19 18 18 20 19 21 21 21 21 21 21 21 21 18 17 18 19 20 21 21 18 19 25 18 12 19 23 27 27 22 26 31 30 31 32 33 32 32 32 31 29 31 33 33 33 33 32 32 31 31 31 30 28 27 29 28 29 28 28 28 28 27 27 27 26 26 25 23 23 22 22 21 21 21
53 52 50 48 46 44 42 39 39 38 36 37 35 32 29 29 31 27 20 19 19 19 19 19 19 19 19 20 21 22 22 22 22 22 22 21 20 20 19 18 19 20 17 13 19 24 15 15 22 19 20 20 18 26 30 29 32 34 34 34 34 33 31 32 33 33 32 34 34 33 32 31 31 31 30 29 27 28 29 30 30 29 30 29 28 27 27 26 26 24 23 22 22 22 21 21 21
51 50 48 47 46 44 42 41 39 38 36 37 35 31 30 30 32 29 23 22 21 21 21 21 22 19 20 21 21 22 22 23 22 22 22 22 21 21 20 18 18 18 16 16 20 19 13 20 25 19 16 14 16 25 28 31 34 35 35 36 35 33 32 33 33 33 34 34 34 33 31 31 32 31 30 29 28 29 30 31 30 31 31 30 30 28 28 28 26 25 25 24 23 21 21 20 20
52 51 52 49 49 46 43 42 39 38 36 34 38 38 35 32 31 27 25 25 23 24 25 25 25 23 22 22 22 22 22 23 23 22 22 22 21 21 20 17 15 17 19 17 13 10 12 19 22 17 15 16 18 22 27 32 35 36 37 36 36 34 34 34 33 34 34 34 33 32 31 31 31 31 30 30 30 30 31 30 30 31 32 30 30 29 28 28 27 26 26 25 24 23 22 21 21
54 54 55 55 56 49 43 40 36 39 36 36 49 48 37 32 28 27 28 27 26 27 27 27 28 27 26 25 24 23 23 24 23 23 23 22 22 21 21 17 12 16 21 18 11 12 16 16 17 16 17 22 22 21 27 32 35 38 37 37 37 36 35 34 34 34 34 34 33 32 31 31 31 31 31 31 31 31 30 30 31 31 32 30 29 29 28 27 27 26 26 26 25 25 24 23 23
55 53 52 56 58 48 42 41 39 43 37 38 54 48 33 30 28 28 30 29 28 27 27 28 28 29 29 28 29 27 26 26 25 25 24 23 23 22 23 19 12 14 20 19 13 15 18 14 15 20 23 28 27 24 30 35 37 39 38 38 38 37 36 35 35 34 33 33 31 31 31 30 30 31 31 31 31 30 30 30 31 31 31 30 29 29 28 27 27 26 26 26 26 26 25 24 24
57 57 51 48 50 45 42 41 41 45 37 37 50 45 34 32 29 28 30 30 30 28 28 28 28 29 30 30 30 30 28 29 28 27 26 24 24 22 23 22 15 14 17 17 15 14 15 13 15 24 29 33 33 28 31 36 38 39 39 39 38 38 37 35 35 34 33 32 31 30 31 30 30 30 31 31 31 30 30 31 30 31 31 30 29 29 28 28 28 28 28 27 26 26 25 25 24
53 57 51 43 45 46 43 39 39 42 37 38 45 43 39 34 30 29 31 32 31 30 30 29 29 29 30 31 31 31 30 30 30 28 27 26 25 24 25 26 21 17 16 15 15 13 14 14 15 25 31 34 37 34 33 37 38 39 39 39 38 38 37 35 34 33 32 33 31 30 30 30 30 31 31 31 31 31 32 31 30 30 31 30 30 29 29 29 29 29 28 27 27 26 25 25 25
51 49 44 39 43 46 43 40 37 38 40 40 40 41 40 35 32 31 32 33 32 31 31 30 29 29 30 32 32 32 31 30 31 31 30 29 28 27 29 32 29 23 18 16 17 16 17 19 18 23 25 27 34 37 37 38 38 39 39 38 38 37 37 35 34 33 33 32 32 31 30 29 30 31 31 32 32 32 32 32 31 31 31 31 31 31 30 30 30 30 29 28 29 27 26 26 26
54 48 42 38 39 42 43 40 36 37 42 42 41 42 38 35 36 34 33 33 31 29 30 30 30 29 30 31 32 32 31 30 33 36 36 35 35 35 37 39 37 32 25 21 20 19 19 19 18 19 20 21 26 31 35 38 39 39 39 38 37 36 35 35 34 34 33 32 31 31 29 30 31 31 32 33 34 34 33 33 33 33 33 32 33 33 32 30 30 32 31 30 30 29 28 28 29
52 47 44 41 40 40 38 37 35 37 43 42 42 43 37 35 36 33 32 31 30 30 29 30 30 30 31 32 33 32 33 35 39 42 42 41 42 42 43 43 42 39 33 25 21 20 18 17 17 17 17 18 20 27 34 38 39 39 38 37 35 34 34 34 35 34 32 32 32 31 30 31 32 32 33 34 35 35 34 34 36 36 36 34 35 34 32 31 32 33 33 32 30 29 29 28 30
48 45 43 39 39 37 32 32 33 38 45 42 38 39 36 35 34 31 31 30 30 31 30 31 32 34 35 36 38 38 40 43 45 46 45 44 45 44 44 45 45 43 38 30 23 20 19 17 18 17 16 15 17 26 34 36 39 40 37 36 34 34 34 34 34 33 32 32 32 31 31 32 32 34 34 35 37 36 36 38 38 39 38 37 36 35 33 33 34 34 34 33 31 30 29 29 30
49 48 45 41 38 35 31 33 34 39 46 40 32 36 37 35 34 31 32 32 33 33 35 40 43 44 44 43 45 44 45 46 46 47 46 45 45 44 44 45 46 43 39 35 26 22 22 20 19 18 16 15 15 19 23 26 33 37 36 36 35 33 34 33 32 32 33 32 32 32 33 33 33 35 35 36 37 36 37 39 39 39 39 38 37 36 35 35 35 36 35 33 33 31 30 30 31
52 50 50 46 40 38 36 35 35 40 47 41 33 38 38 34 33 33 34 36 40 42 45 50 52 52 52 50 48 45 45 47 47 47 46 45 44 43 42 42 43 41 39 37 30 24 23 23 21 19 17 16 15 15 16 18 25 29 30 34 35 34 33 33 32 33 33 32 32 33 33 34 35 35 34 35 35 36 39 39 39 40 40 39 38 37 37 35 35 37 36 35 35 34 32 32 32
52 52 53 49 43 46 45 39 39 41 45 45 39 40 40 36 35 36 40 43 47 51 52 54 54 53 53 53 51 46 43 46 47 47 45 45 44 42 40 40 41 41 38 39 35 26 22 23 21 20 18 16 16 15 14 17 20 21 23 27 30 31 32 33 32 32 32 32 32 33 34 35 37 36 35 35 34 36 39 40 41 41 41 40 39 38 38 36 36 37 37 37 37 37 36 35 33
52 51 53 48 44 49 48 42 41 41 42 42 44 50 48 43 43 43 45 46 48 50 49 50 51 50 52 51 49 46 42 43 46 47 45 44 42 40 39 40 40 41 39 39 38 29 22 22 20 18 18 16 14 13 13 15 17 20 22 25 29 31 32 32 32 31 31 32 32 33 34 36 38 37 37 36 35 37 40 41 42 41 42 42 41 40 38 38 37 36 37 38 38 39 39 37 34
55 52 51 50 46 47 45 43 43 49 53 46 52 70 60 44 47 48 45 44 45 46 45 46 47 47 49 48 48 46 42 42 45 46 46 43 41 40 39 40 41 42 40 39 40 34 25 21 19 17 16 15 12 11 13 14 16 20 26 31 34 34 32 32 32 31 31 32 33 33 35 37 37 37 37 36 37 39 40 42 42 42 43 43 43 42 40 39 38 37 38 38 38 39 39 37 35
59 53 49 51 50 48 46 46 51 58 59 48 50 67 61 46 46 45 43 42 42 43 42 43 45 45 46 47 47 45 42 44 46 46 45 42 41 40 39 40 42 42 41 39 39 38 30 22 18 16 14 12 11 10 12 14 15 18 23 29 33 34 33 32 33 32 30 31 33 35 35 36 36 37 37 37 38 39 41 41 41 42 43 43 43 43 41 40 40 39 39 39 39 39 39 37 35
58 50 48 51 51 52 49 50 55 53 50 46 44 50 54 50 45 40 39 40 41 42 42 42 43 44 44 44 45 43 42 43 44 43 42 41 39 39 40 40 40 40 39 38 37 37 35 28 21 17 13 11 11 11 12 13 15 16 18 24 30 34 33 32 33 33 32 31 32 35 35 35 35 35 37 37 37 39 40 41 40 40 41 41 42 42 42 42 41 40 40 40 39 39 39 38 36
51 45 47 50 49 51 50 51 53 47 48 53 44 43 51 49 41 38 38 39 41 41 40 41 40 40 40 41 42 42 42 41 39 40 40 40 38 38 40 40 39 37 36 36 36 36 36 33 25 17 13 12 11 12 13 13 13 13 16 22 28 32 32 30 32 34 34 33 33 34 34 33 34 34 36 36 36 37 39 40 40 40 40 41 41 42 42 42 42 42 41 41 41 40 39 38 38
47 44 45 47 48 48 49 51 51 46 51 54 43 42 51 47 40 40 40 39 41 39 37 38 36 37 38 39 41 41 40 38 36 38 39 38 38 38 40 40 39 37 34 35 36 35 35 35 30 20 14 12 13 13 13 13 13 12 14 18 22 30 32 29 29 33 35 34 34 35 34 34 34 35 35 34 35 37 38 40 40 40 41 41 41 42 41 42 43 43 42 43 43 42 40 39 39
43 43 44 45 46 46 47 48 50 50 50 47 41 39 45 45 39 38 40 38 37 36 36 36 35 36 37 38 39 39 38 36 35 37 39 38 36 37 38 38 38 38 36 35 35 35 35 35 33 25 16 13 13 14 13 13 13 12 14 15 17 25 29 29 30 32 33 34 35 36 36 35 35 36 35 35 36 37 38 40 40 41 41 40 41 42 42 42 43 43 42 43 44 43 42 39 38
42 43 46 46 46 46 48 46 48 52 48 42 42 39 41 44 38 35 36 33 32 35 35 35 35 35 36 36 37 36 37 37 36 37 38 36 35 36 38 37 37 36 36 36 35 34 35 36 35 30 21 14 13 14 14 14 14 13 14 15 16 19 22 25 30 31 30 32 34 36 37 36 37 37 36 37 38 36 37 39 39 39 39 38 39 40 39 40 42 44 43 43 44 44 43 40 38
42 44 46 47 46 46 47 45 44 47 45 41 42 42 43 40 35 33 32 30 31 32 32 33 34 35 36 36 35 34 34 35 36 37 37 35 34 36 37 36 36 35 35 35 34 34 35 36 36 33 28 18 13 13 14 14 15 15 14 15 16 17 17 19 23 27 28 28 30 34 37 37 37 36 36 38 37 35 36 37 35 36 37 37 35 33 32 35 41 46 45 44 46 45 45 42 39
44 45 47 47 44 42 41 42 42 41 41 40 39 41 43 38 33 31 29 29 29 28 28 30 31 33 35 34 33 33 33 33 35 37 37 34 34 35 35 35 36 35 35 35 35 33 34 36 37 36 34 27 17 14 14 13 13 15 15 16 17 18 18 16 17 21 23 22 26 30 32 32 33 35 38 37 35 34 35 34 32 33 35 34 31 28 29 34 41 47 48 47 47 48 48 46 41
45 45 45 45 45 42 41 41 41 38 37 39 38 39 39 35 32 30 29 29 28 27 28 28 29 31 32 32 32 32 33 33 34 36 37 35 34 34 34 35 36 36 36 36 36 35 33 34 36 37 38 35 26 19 17 15 13 13 14 14 16 17 18 18 16 18 19 20 24 28 29 29 29 33 35 34 33 34 35 33 32 33 32 30 28 27 31 37 42 47 49 49 48 50 51 49 45
44 42 43 45 43 40 41 40 39 39 38 35 36 35 33 31 29 28 30 30 29 29 29 29 31 31 31 31 31 31 33 33 33 35 37 35 33 33 34 35 35 36 37 37 38 38 37 36 36 38 40 40 35 27 23 21 18 16 14 13 14 15 17 17 17 17 18 18 21 25 29 30 28 29 32 32 32 33 34 33 33 34 31 29 29 28 32 36 39 45 51 51 51 52 53 52 47
42 41 43 41 36 36 40 39 38 40 38 31 31 33 32 32 30 26 28 29 29 30 30 31 33 33 32 33 33 33 33 33 33 34 36 35 33 33 33 34 35 35 36 37 38 39 39 39 38 39 39 40 40 34 28 25 23 20 17 14 13 14 15 17 16 16 16 17 18 20 24 26 26 27 29 31 31 32 33 33 35 36 33 31 31 31 33 33 38 46 51 52 52 51 54 54 50
39 40 40 36 34 36 37 37 37 37 34 28 30 31 30 34 33 26 26 28 28 29 29 30 33 34 34 34 34 34 33 34 34 35 35 34 33 33 32 33 34 34 35 37 38 39 40 40 40 40 40 40 41 39 33 27 26 24 21 19 17 15 16 17 17 18 17 18 19 20 21 23 26 27 28 30 32 35 37 37 40 41 40 38 36 36 36 35 41 49 51 53 52 51 55 56 51
36 37 36 34 39 41 37 35 35 35 32 28 29 28 26 30 32 28 29 30 28 28 28 28 30 32 33 34 35 34 34 35 35 35 35 33 33 33 33 33 33 34 35 38 39 40 40 41 41 41 41 41 41 42 38 31 27 26 25 25 23 22 22 21 21 21 20 20 22 26 27 26 28 30 31 34 38 44 46 45 47 48 47 47 43 43 41 40 46 51 53 56 54 52 56 57 52
32 33 32 32 36 39 37 33 32 34 33 30 30 32 29 27 29 30 30 30 29 28 27 27 28 30 32 34 35 35 36 37 37 37 36 34 35 35 34 34 35 35 36 39 40 41 42 42 42 42 43 44 44 45 43 37 30 28 27 27 28 28 29 29 28 28 28 26 26 31 33 32 33 35 36 37 40 47 50 50 51 51 51 51 49 49 45 44 52 55 53 54 53 52 55 55 51
32 33 33 32 31 33 33 31 29 32 32 28 31 36 32 25 25 28 29 29 29 28 26 26 27 29 31 33 35 36 36 38 38 38 38 38 37 37 37 37 38 38 38 39 41 43 44 44 44 45 44 46 47 47 46 41 34 30 29 29 29 31 32 34 35 36 36 36 35 36 38 38 39 41 41 38 39 42 45 45 46 46 46 46 47 52 51 49 56 61 56 51 49 52 55 54 50
34 34 33 33 32 31 33 33 28 27 29 27 30 36 33 25 24 27 28 28 28 27 27 27 27 29 31 33 35 35 36 39 40 40 41 41 38 38 39 39 40 41 40 41 44 46 48 47 46 46 46 48 49 49 49 44 36 32 32 31 31 32 34 35 38 40 42 43 45 46 46 45 45 44 40 37 37 38 37 38 39 38 37 36 39 49 54 52 55 63 64 58 55 57 56 54 52